[Date Prev][Date Next][Thread Prev][Thread Next] - [Date Index][Thread Index][Author Index]

2 Line ISS Keps 8-6



ISS 
1 25544U 98067A   03218.13889358  .00014218  00000-0  17205-3 0  2996
2 25544  51.6316 128.8546 0008293  91.8663  63.0964 15.60934778268805



----
Via the sarex mailing list at AMSAT.ORG courtesy of AMSAT-NA.
To unsubscribe, send "unsubscribe sarex" to Majordomo@amsat.org



AMSAT Top AMSAT Home